www.pogodaiklimat.ru

Погода и климат >> Архив погоды >> Казахстан >> Жангизтобе


АРХИВ ПОГОДЫ в Жангизтобе

Время (UTC), дата Ветер
(напр.,м/с)
 
Видим.   Явления Облачность Т
(С)
Тd
(С)
f
(%)
Тe
(С)
Тes
(С)
Комфортность P
(гПа)
Po
(гПа)
Тmin
(С)
Tmax
(С)
R
(мм)
R24
(мм)
S
(см)
09 11.02 ЮВ 16-19
{24}
20 км позёмок 6/0
[Ac lent]
-13.2 -16.9 74 -27 -27 1029.3 970.1
12 11.02 ЮВ 16-19
{25}
20 км позёмок 10/0
[As op]
-13.8 -17.1 76 -28 -28 1028.5 969.2
15 11.02 ЮВ 16-18
{23}
н/о позёмок 10/0
[As op]
-14.1 -17.1 78 -28 -28 1028.7 969.3 -12.7
18 11.02 ЮВ 16-17
{22}
н/о позёмок {снег} 10/0
[As op]
-14.4 -17.2 79 -29 -29 1027.7 968.3 -12.7
21 11.02 ЮВ 16-18
{22}
н/о позёмок 10/0
[As op]
-15.1 -17.9 79 -30 -30 1027.7 968.2
00 12.02 ЮВ 7
{22}
н/о {метель} 8/0
[Ac lent]
-13.5 -16.8 76 -23 -23 1029.4 970.1
03 12.02 З 2 50 км 8/0
[Ac As]
-16.7 -19.3 80 -22 -22 1032.3 972.1 5
06 12.02 З 2 50 км в посл. час снег 10/0
[As trans]
-15.7 -18.8 77 -21 -19 1034.7 974.6 -17.1 0.0
09 12.02 СЗ 2 50 км {снег} 10/0
[As trans]
-15.3 -18.6 76 -20 -19 1036.1 976.0
12 12.02 З 2 50 км {снег} 10/0
[As trans]
-17.9 -21.0 77 -23 -23 1039.1 978.3
15 12.02 ЮЗ 1 н/о 10/0
[As trans]
-22.1 -24.6 80 -25 -25 1042.1 980.1 -14.8
18 12.02 Ю 1 н/о 10/0
[As trans]
-23.3 -25.7 81 -27 -27 1043.1 980.8 -14.8 0.4
21 12.02 Ю 1 н/о 6/0
[Ac As]
-24.1 -26.4 81 -28 -28 1043.9 981.2
00 13.02 Ю 1 н/о 3/0
[Ci fib]
-25.1 -27.5 80 -29 -29 1044.4 981.5
03 13.02 штиль 0 50 км ясно -24.9 -27.4 80 -25 -24 1043.8 981.0 5
06 13.02 З 1 50 км ясно -16.4 -20.9 68 -19 -13 1041.0 980.4 -25.8
09 13.02 С 1 50 км ясно -14.5 -19.1 68 -17 -14 1040.3 980.2
12 13.02 С 1 50 км ясно -15.7 -19.9 70 -18 -18 1040.4 980.0
15 13.02 штиль 0 н/о ясно -19.6 -22.6 77 -20 -20 1041.7 980.3 -13.9
18 13.02 ЮЗ 1 н/о ясно -20.4 -23.0 80 -23 -23 1041.9 980.3 -13.9
21 13.02 штиль 0 н/о ясно -22.5 -24.5 84 -23 -23 1042.6 980.5
00 14.02 Ю 1 н/о ясно -23.1 -25.6 80 -26 -26 1041.7 979.5
03 14.02 ЮВ 2 50 км ясно -17.1 -20.0 78 -22 -21 1040.2 979.5 5
06 14.02 СВ 1 50 км ясно -14.9 -19.0 71 -17 -12 1039.5 979.3 -23.7
09 14.02 Ю 2 50 км ясно -12.0 -16.2 71 -17 -14 1037.7 978.3
12 14.02 Ю 3 50 км ясно -14.7 -18.1 75 -21 -21 1038.1 978.1
15 14.02 Ю 2 н/о ясно -16.6 -19.5 78 -22 -22 1038.0 977.5 -11.6
18 14.02 Ю 3 н/о ясно -16.9 -19.8 78 -24 -24 1036.4 976.0 -11.6
21 14.02 Ю 3 н/о ясно -15.9 -19.0 77 -23 -23 1035.7 975.5
00 15.02 Ю 2 н/о ясно -15.1 -18.4 76 -20 -20 1034.4 974.5
03 15.02 Ю 2 50 км ясно -15.0 -18.4 75 -20 -19 1034.3 974.4 5
06 15.02 Ю 3 50 км ясно -12.4 -17.1 68 -18 -14 1033.4 974.1 -17.4
09 15.02 ЮВ 17-19
{23}
20 км позёмок 8/0
[Ac lent Ci fib]
-11.2 -16.3 66 -25 -25 1030.0 971.2
12 15.02 ЮВ 17-18
{20}
20 км 6/0
[Ac As]
-11.6 -16.3 68 -25 -25 1030.1 971.2
15 15.02 ЮВ 18-20
{22}
н/о позёмок 8/0
[Ac As]
-14.1 -18.4 70 -29 -29 1030.8 971.3 -10.8
18 15.02 ЮВ 16-19
{23}
н/о сильный позёмок 8/0
[Ac As]
-15.4 -19.3 72 -30 -30 1031.3 971.5 -10.8
21 15.02 ЮВ 17-19
{23}
н/о сильная метель 9/0
[Ac As]
-16.1 -19.7 74 -31 -31 опасность
обморожения
1031.4 971.4
00 16.02 ЮВ 18-20
{23}
н/о сильный позёмок 9/0
[Ac As]
-14.5 -18.1 74 -29 -29 1029.7 970.2
03 16.02 ЮВ 15-19
{22}
20 км позёмок 10/0
[As op]
-12.0 -16.2 71 -25 -25 1030.7 971.7 5
06 16.02 Ю 9
{19}
50 км {метель} 8/0
[Ac lent]
-6.2 -12.0 63 -15 -15 1029.6 971.9 -16.6
09 16.02 Ю 9 10 км слаб. снег {метель} 10/0
[As op]
-6.4 -8.7 84 -16 -16 1029.5 971.8
12 16.02 Ю 12-16
{17}
10 км слаб. снег {метель} 10/0
[As op]
-8.2 -10.5 83 -19 -19 1030.2 972.1
15 16.02 Ю 12-15
{17}
н/о позёмок {снег} 10/0
[As op]
-8.4 -12.1 75 -19 -19 1029.3 971.2 -6.1
18 16.02 ЮВ 10
{16}
н/о позёмок 8/0
[Ac lent]
-7.6 -12.0 71 -18 -18 1027.3 969.4 -6.1 0.3
21 16.02 ЮВ 14-16
{18}
н/о позёмок 6/0
[Ac lent]
-8.8 -13.1 71 -21 -21 1024.0 966.1
00 17.02 ЮВ 15-20
{22}
н/о позёмок 6/0
[Ac lent]
-10.2 -15.3 66 -23 -23 1020.5 962.5
03 17.02 ЮВ 15-17
{21}
50 км {метель} 8/0
[Ac und Ci fib]
-10.4 -15.9 64 -23 -23 1019.1 961.1 5
06 17.02 Ю 15-16
{23}
50 км {метель} 4/0
[Ac lent Ci fib]
-8.5 -16.0 55 -20 -20 1016.5 959.0 -11.1
09 17.02 ЮВ 16-20
{24}
50 км 6/0
[Ac lent Ci sp]
-6.1 -13.3 57 -17 -17 1012.0 955.3
12 17.02 Ю 15-18
{22}
50 км 8/0
[Ac und Ci sp]
-6.4 -12.2 63 -18 -18 1011.3 954.6
15 17.02 Ю 16-19
{24}
н/о 10/0
[Ac As]
-6.6 -12.5 63 -18 -18 1011.1 954.4 -5.6
18 17.02 Ю 16-17
{24}
н/о 10/0
[As op]
-6.9 -12.4 65 -19 -19 1010.0 953.5 -5.6
21 17.02 ЮВ 16-19
{24}
н/о 10/0
[As op]
-7.0 -12.6 64 -19 -19 1010.8 954.0
00 18.02 ЮВ 15-17
{22}
н/о 10/0
[As op]
-6.5 -12.9 60 -18 -18 1011.8 955.0
03 18.02 ЮВ 15-20
{23}
50 км 10/0
[As op]
-5.0 -11.6 60 -16 -16 1011.6 955.2 5
06 18.02 ЮВ 15-20
{23}
50 км 10/0
[As op]
-4.0 -11.0 58 -14 -14 1013.5 957.2 -7.6

 

Местоположение метеостанции Жангизтобе (Восточно-Казахстанская область, Казахстан): широта 49.22 долгота 81.22 высота над уровнем моря 455 м.

В архиве по умолчанию представлена погода в Жангизтобе за последнюю неделю. Архивные данные за месяц целиком и за предыдущие месяцы, начиная с января 2011 года, Вы можете получить, выбрав интересующий диапазон дат из раскрывающегося списка и нажав кнопку "Ввод!".


*Определитесь, кто Вы:
робот инопланетянин человек

Внимание! Время в таблицах - всемирное. Для получения местного времени необходимо прибавить поправку, которая равна 6 ч.

Смотрите также архив погоды в соседних городах и на ближайших метеорологических станциях:

Погода в Кентерлау (Восточно-Казахстанская область, Казахстан) (29 км)
Погода в Шаре (Восточно-Казахстанская область, Казахстан) (42 км)
Погода в Шалабае (Восточно-Казахстанская область, Казахстан) (57 км)
Погода в Кокпекты (Восточно-Казахстанская область, Казахстан) (99 км)
Погода в Кайсеновой (Восточно-Казахстанская область, Казахстан) (117 км)
Погода в Таврии (Восточно-Казахстанская область, Казахстан) (121 км)
Погода в Первомайском (Восточно-Казахстанская область, Казахстан) (130 км)
Погода в Шульбинске (Восточно-Казахстанская область, Казахстан) (130 км)
Погода в Глубоком (Восточно-Казахстанская область, Казахстан) (130 км)
Погода в Усть-Каменогорске (Восточно-Казахстанская область, Казахстан) (131 км)

Пояснения к столбцам:

Ветер - указаны скорость ветра в м/с - средняя за 10 мин, порывы в срок и между сроками (в фигурных скобках) и направление, откуда дует ветер: С - северный, СВ - северо-восточный, В - восточный, ЮВ - юго-восточный, Ю - южный, ЮЗ - юго-западный, З - западный, СЗ - северо-западный.
Видимость - горизонтальная дальность видимости в метрах или километрах. При видимости от 1 до 10 км при отсутствии осадков обычно наблюдается дымка, при ухудшении видимости до 1 км и менее - туман. В сухую погоду видимость может ухудшаться дымом, пылью или мглою.
Явления - указаны атмосферные явления, наблюдавшиеся в срок или в последний час перед сроком; фигурными скобками обозначены явления, наблюдавшиеся между сроками (за 1-3 часа до срока); квадратными скобками обозначены град или гололедные отложения с указанием их диаметра в мм.
Облачность - указаны через наклонную черту общая и нижняя облачность в баллах и высота нижней границы облаков в метрах; квадратными скобками обозначены формы облаков: Ci - перистые, Cs - перисто-слоистые, Cc - перисто-кучевые, Ac - высококучевые, As - высокослоистые, Sc - слоисто-кучевые, Ns - слоисто-дождевые, Cu - кучевые, Cb - кучево-дождевые. Подробнее классификацию облаков см. в Атласе облаков (PDF).
T - Температура воздуха - температура, измеренная на высоте 2 м над землей.
Td - Температура точки росы - температура, при понижении до которой содержащийся в воздухе водяной пар достигнет насыщения.
f - Относительная влажность воздуха - влажноcть воздуха, измеренная на высоте 2 м над землей.
Te - Эффективная температура - температура, которую ощущает одетый по сезону человек в тени. Характеристика душности погоды. При расчете учитывается влияние влажности воздуха и скорости ветра на теплоощущения человека.
Tes - Эффективная температура на солнце - температура, которую ощущает человек, с поправкой на солнечный нагрев. Характеристика знойности погоды. Зависит от высоты солнца над горизонтом, облачности и скорости ветра. Ночью, в пасмурную погоду, а также при ветре 12 м/с и более поправка равна нулю.
P - Атмосферное давление - приведенное к уровню моря атмосферное давление.
Po - Атмосферное давление - измеренное на уровне метеостанции атмосферное давление.
Tmin - Минимальная температура - минимум температуры воздуха на высоте 2 м над землей.
Tmax - Максимальная температура - максимум температуры воздуха на высоте 2 м над землей.
R - Количество осадков - Количество выпавших осадков за период времени, мм. При наведении курсора мыши на число - период времени, за который выпало указанное количество осадков.
R24 - Количество осадков - Количество выпавших осадков за 24 часа, мм.
S - Снежный покров - Высота снежного покрова, см. При наведении курсора мыши на число - состояние снежного покрова и степень покрытия местности в баллах.